GLOBALSTAR M095 [+]

Last updated on Fri Dec 29 2023 00:02:57 GMT+0000 (Coordinated Universal Time)

1 39077U 13005F 23361.84700907 -.00000122 00000+0 -10297-3 0 9993 2 39077 51.9779 148.9561 0001707 105.5203 254.5852 12.62272229501913
UTC large
Height (km)
Speed (km/s)
/
Latitude / Longitude
Inclination (degrees)
Orbital Period (minutes)
Azimuth
Elevation
Range (km)
Doppler Factor

Next 0 passes for location: London (51.5072 / 0.1276)

Sorry there are no passes over London.